Location: Klein M�hlingen
(51.9472°N, 11.7453°E)
Time: 22:38:53
(UTC+00:00)

STARLINK-1203 - Pass Details

Date: 09 April 2020
Orbit: 559 x 560 km, 53.0° (Epoch: 24 May)

Event Time Altitude Azimuth Distance (km) Brightness Sun altitude
Rises 19:11:25 0° 287° (WNW) 2,750 9.1 -10.9°
Reaches altitude 10° 19:13:41 10° 284° (WNW) 1,853 7.7 -11.2°
Maximum altitude 19:17:51 65° 203° (SSW) 619 3.8 -11.8°
Enters shadow 19:20:48 19° 125° (SE) 1,379 5.0 -12.2°
